[[{"header":{"parameterUnit":"m.s-1","parameterCategory":1,"la1":30.2991,"la2":30.254,"lo1":-89.0895,"lo2":-89.0444,"dy":0.0017,"dx":0.0017,"nx":28,"ny":28,"refTime":"2023-09-08T21:00:00:Z","depth":0,"parameterNumber":2,"parameterNumberName":"U-component_of_WINDS"},"data":[0,0,0,0,0,0,0,0,0,0,0,0,0,0,0,0,0,0,0,0,0,0,0,0,0,0,0,0,0,0,0,0,0,0,0,0,0,0,0,0,0,0,0,0,0,0,0,0,0,0,0,0,0,0,0,0,0,0,-0.7679,-0.7678,0,-0.7601,-0.76,-0.7599,-0.7602,-0.7603,-0.7605,-0.7606,-0.752,-0.7516,-0.7513,0,0,0,0,0,0,0,0,0,0,0,0,0,-0.7827,-0.7824,-0.7679,-0.7678,-0.7677,-0.7601,-0.76,-0.7599,-0.7602,-0.7604,-0.7605,-0.7606,-0.7521,-0.7517,-0.7513,0,0,0,0,0,0,0,0,0,0,0,0,0,-0.7757,-0.7823,-0.7679,-0.767,-0.7668,-0.7601,-0.76,-0.7598,-0.7602,-0.7604,-0.7605,-0.7607,-0.7522,-0.7517,-0.7512,-0.7447,0,0,-0.7497,-0.7495,0,0,0,0,0,0,0,0,-0.7761,-0.7751,-0.7672,-0.767,-0.7669,-0.7613,-0.762,-0.7547,-0.7601,-0.7627,-0.7606,-0.7608,-0.7549,-0.7542,-0.7523,-0.7443,-0.744,-0.7496,-0.7493,-0.7491,-0.749,0,0,0,0,0,0,0,-0.7766,-0.7755,-0.7648,-0.7671,-0.7669,-0.7668,-0.766,-0.7606,-0.7579,-0.7625,-0.7625,-0.7616,-0.7548,-0.7528,-0.7521,-0.7438,-0.7496,-0.7492,-0.7489,-0.7487,-0.73,-0.7298,0,0,0,0,0,0,-0.7773,-0.7759,-0.765,-0.7646,-0.772,-0.7664,-0.7655,-0.7629,-0.758,-0.7574,-0.7615,-0.7616,-0.7536,-0.7527,-0.7518,-0.7437,-0.7491,-0.7486,-0.7484,-0.7302,-0.7299,-0.7297,0,0,0,0,0,0,-0.7776,-0.7764,-0.7654,-0.7702,-0.7688,-0.766,-0.7631,-0.7627,-0.7607,-0.7572,-0.7567,-0.7599,-0.7537,-0.7525,-0.7465,-0.7435,-0.7484,-0.748,-0.7304,-0.7301,-0.7298,-0.7277,0,0,0,0,0,0,-0.7781,-0.7765,-0.7741,-0.7702,-0.7686,-0.7603,-0.7629,-0.7624,-0.7599,-0.76,-0.7556,-0.7551,-0.7537,-0.7472,-0.746,-0.7429,-0.7476,-0.7306,-0.7302,-0.7299,-0.728,-0.7273,-0.7268,0,0,0,0,0,-0.7786,-0.7737,-0.774,-0.7727,-0.7656,-0.7602,-0.7592,-0.7579,-0.7596,-0.7571,-0.7549,-0.7552,-0.7441,-0.7466,-0.7452,-0.7419,-0.7308,-0.7304,-0.7299,-0.7283,-0.7275,-0.7268,0,0,0,0,0,0,-0.7772,-0.7732,-0.7734,-0.7672,-0.764,-0.7602,-0.757,-0.7571,-0.7533,-0.7536,-0.752,-0.751,-0.7449,-0.7428,-0.7458,-0.7353,-0.7376,-0.7369,-0.7368,-0.736,-0.7355,-0.736,-0.7472,0,0,0,0,0,-0.7762,-0.7723,-0.769,-0.7637,-0.7622,-0.7599,-0.7575,-0.7568,-0.7534,-0.752,-0.7493,-0.7458,-0.7415,-0.7387,-0.7346,-0.7278,-0.7267,-0.7248,-0.7242,-0.7237,-0.723,-0.719,-0.7181,-0.7282,-0.7282,-0.7283,0,0,-0.7739,-0.7713,-0.7689,-0.7634,-0.7609,-0.7567,-0.7587,-0.7542,-0.751,-0.7512,-0.7454,-0.7433,-0.7393,-0.7328,-0.7298,-0.7309,-0.72,-0.7231,-0.7228,-0.7223,-0.7185,-0.7175,-0.7167,-0.7279,-0.728,-0.728,0,0,-0.7678,-0.7655,-0.7608,-0.7583,-0.7545,-0.753,-0.7519,-0.7481,-0.7468,-0.741,-0.741,-0.7371,-0.7298,-0.7269,-0.7245,-0.7172,-0.7173,-0.7159,-0.7126,-0.7088,-0.708,-0.7073,-0.7045,-0.7036,-0.7153,-0.7153,-0.7153,0,-0.7654,-0.7593,-0.7584,-0.7538,-0.7513,-0.7515,-0.7467,-0.7442,-0.7392,-0.7373,-0.7387,-0.7295,-0.7268,-0.7196,-0.7178,-0.7159,-0.7144,-0.7163,-0.7083,-0.7075,-0.7068,-0.7041,-0.7031,-0.7151,-0.7152,-0.7152,-0.7152,0,-0.7565,-0.7523,-0.7489,-0.7443,-0.7414,-0.7367,-0.7349,-0.7321,-0.7317,-0.73,-0.7239,-0.7208,-0.716,-0.7142,-0.7137,-0.7069,-0.7076,-0.7087,-0.7109,-0.7057,-0.7032,-0.7021,-0.7149,-0.715,-0.715,-0.7151,0,0,-0.749,-0.744,-0.7427,-0.7406,-0.7365,-0.733,-0.7283,-0.7238,-0.7213,-0.7179,-0.7137,-0.7076,-0.7085,-0.7057,-0.7049,-0.7016,-0.6958,-0.703,-0.7029,-0.7016,-0.6878,-0.6869,-0.6858,-0.696,-0.6958,-0.6956,-0.6881,0,-0.7422,-0.734,-0.733,-0.7257,-0.7216,-0.7218,-0.7176,-0.7146,-0.7129,-0.7091,-0.7072,-0.7028,-0.7044,-0.7027,-0.6995,-0.6972,-0.693,-0.6978,-0.6918,-0.6916,-0.6926,-0.6845,-0.6835,-0.6765,-0.6871,-0.6869,-0.6868,0,-0.7331,-0.7296,-0.7218,-0.7182,-0.7165,-0.7128,-0.7085,-0.705,-0.7014,-0.7004,-0.6974,-0.697,-0.6919,-0.6947,-0.6875,-0.6908,-0.6883,-0.6868,-0.6865,-0.6857,-0.6887,-0.6831,-0.6743,-0.6731,-0.6853,-0.6854,-0.6855,0,-0.7281,-0.7214,-0.7159,-0.7141,-0.7098,-0.7072,-0.7052,-0.7019,-0.6992,-0.6954,-0.6936,-0.6893,-0.6868,-0.6834,-0.6817,-0.6839,-0.6746,-0.6772,-0.6734,-0.6734,-0.6712,-0.6713,-0.6616,-0.6701,-0.6701,-0.6701,-0.6701,0,-0.7205,-0.7157,-0.7136,-0.7102,-0.7047,-0.7036,-0.6982,-0.6964,-0.6934,-0.6895,-0.6894,-0.6856,-0.6839,-0.6798,-0.6785,-0.6727,-0.6716,-0.6705,-0.6701,-0.6703,-0.6704,-0.6685,-0.6688,-0.6698,-0.6699,-0.6699,-0.67,0,-0.7138,-0.7123,-0.7063,-0.7028,-0.7018,-0.6979,-0.6948,-0.6914,-0.6898,-0.6848,-0.6836,-0.6811,-0.6763,-0.6744,-0.6685,-0.6677,-0.6608,-0.661,-0.6621,-0.6619,-0.6581,-0.6584,-0.6465,-0.6448,-0.6547,-0.6546,-0.6545,0,-0.7089,-0.7053,-0.7014,-0.6989,-0.6969,-0.6928,-0.6901,-0.6889,-0.686,-0.6817,-0.6787,-0.6741,-0.6702,-0.6625,-0.66,-0.6555,-0.6554,-0.6515,-0.6547,-0.6549,-0.655,-0.6551,-0.6547,-0.6509,-0.6508,-0.6507,-0.6506,0,-0.7003,-0.6997,-0.696,-0.6919,-0.6887,-0.6854,-0.6821,-0.68,-0.6783,-0.6751,-0.6703,-0.6673,-0.6614,-0.6566,-0.652,-0.6498,-0.6497,-0.6497,-0.6485,-0.6485,-0.6492,-0.6486,-0.6602,-0.6499,-0.65,-0.65,-0.6501,-0.6501,-0.6942,-0.6909,-0.6877,-0.6834,-0.6809,-0.6779,-0.6745,-0.6726,-0.6686,-0.6638,-0.6633,-0.6581,-0.6546,-0.6484,-0.646,-0.6418,-0.6427,-0.6411,-0.6406,-0.6402,-0.6398,-0.6502,-0.6409,-0.641,-0.641,-0.641,-0.641,0,-0.6853,-0.6833,-0.6795,-0.675,-0.6716,-0.6723,-0.6687,-0.6658,-0.6612,-0.6581,-0.6543,-0.6487,-0.6441,-0.6413,-0.6367,-0.6338,-0.6337,-0.6326,-0.6326,-0.6321,-0.6393,-0.6407,-0.6327,-0.6328,-0.6328,-0.6328,-0.6328,-0.6328,-0.6803,-0.6747,-0.6738,-0.6669,-0.6648,-0.6599,-0.6577,-0.6549,-0.6523,-0.6462,-0.6424,-0.6407,-0.6376,-0.6327,-0.6285,-0.6278,-0.6259,-0.6247,-0.624,-0.6307,-0.6316,-0.6324,-0.6337,-0.6244,-0.6244,-0.6171,-0.617,-0.617]},{"header":{"parameterUnit":"m.s-1","parameterCategory":1,"la1":30.2991,"la2":30.254,"lo1":-89.0895,"lo2":-89.0444,"dy":0.0017,"dx":0.0017,"nx":28,"ny":28,"refTime":"2023-09-08T21:00:00:Z","depth":0,"parameterNumber":3,"parameterNumberName":"V-component_of_WINDS"},"data":[0,0,0,0,0,0,0,0,0,0,0,0,0,0,0,0,0,0,0,0,0,0,0,0,0,0,0,0,0,0,0,0,0,0,0,0,0,0,0,0,0,0,0,0,0,0,0,0,0,0,0,0,0,0,0,0,0,0,-0.5719,-0.572,0,-0.5869,-0.5871,-0.5873,-0.5991,-0.5992,-0.5993,-0.5994,-0.615,-0.6153,-0.6156,0,0,0,0,0,0,0,0,0,0,0,0,0,-0.5533,-0.5536,-0.5718,-0.572,-0.5722,-0.5869,-0.5871,-0.5873,-0.599,-0.5992,-0.5993,-0.5994,-0.6149,-0.6152,-0.6156,0,0,0,0,0,0,0,0,0,0,0,0,0,-0.5642,-0.5537,-0.5718,-0.5798,-0.5807,-0.5869,-0.5871,-0.5874,-0.599,-0.5992,-0.5994,-0.5995,-0.6147,-0.6152,-0.6157,-0.6151,0,0,-0.6171,-0.6173,0,0,0,0,0,0,0,0,-0.5635,-0.5649,-0.5785,-0.5793,-0.5803,-0.5913,-0.5863,-0.5967,-0.599,-0.5921,-0.5994,-0.5996,-0.607,-0.6081,-0.6105,-0.6159,-0.6165,-0.6171,-0.6174,-0.6176,-0.6177,0,0,0,0,0,0,0,-0.5628,-0.5643,-0.5778,-0.5786,-0.5798,-0.5827,-0.5845,-0.5883,-0.5984,-0.5927,-0.5936,-0.5952,-0.6075,-0.6101,-0.611,-0.6167,-0.6171,-0.6175,-0.6178,-0.618,-0.6225,-0.6223,0,0,0,0,0,0,-0.5608,-0.5636,-0.5774,-0.5783,-0.5722,-0.5829,-0.5849,-0.5876,-0.5984,-0.6002,-0.595,-0.5957,-0.6092,-0.6104,-0.6116,-0.6117,-0.6176,-0.618,-0.6183,-0.6226,-0.6224,-0.6223,0,0,0,0,0,0,-0.5603,-0.5619,-0.5767,-0.5712,-0.5733,-0.5831,-0.586,-0.5878,-0.5904,-0.6001,-0.602,-0.5958,-0.6094,-0.6109,-0.6142,-0.6124,-0.6182,-0.6187,-0.6228,-0.6226,-0.6223,-0.6118,0,0,0,0,0,0,-0.5597,-0.5617,-0.5615,-0.5711,-0.5735,-0.579,-0.5859,-0.588,-0.5911,-0.5921,-0.6014,-0.6031,-0.6096,-0.6134,-0.6146,-0.6131,-0.619,-0.623,-0.6227,-0.6224,-0.6124,-0.6113,-0.6103,0,0,0,0,0,-0.559,-0.5579,-0.5614,-0.563,-0.5735,-0.5788,-0.5803,-0.5878,-0.5909,-0.5909,-0.5972,-0.6028,-0.6124,-0.6136,-0.6151,-0.6137,-0.6232,-0.6228,-0.6224,-0.6128,-0.6115,-0.6103,0,0,0,0,0,0,-0.5479,-0.5593,-0.5633,-0.5653,-0.571,-0.5808,-0.581,-0.5861,-0.5911,-0.5918,-0.601,-0.603,-0.6052,-0.6099,-0.611,-0.6138,-0.6185,-0.6184,-0.6107,-0.6095,-0.6085,-0.6073,-0.6194,0,0,0,0,0,-0.5457,-0.549,-0.5588,-0.5596,-0.5623,-0.5711,-0.5737,-0.579,-0.5853,-0.5878,-0.5943,-0.6003,-0.6047,-0.6074,-0.6119,-0.6131,-0.6153,-0.6129,-0.6119,-0.611,-0.6108,-0.6118,-0.6109,-0.6211,-0.6211,-0.6211,0,0,-0.5411,-0.5478,-0.5493,-0.5576,-0.5626,-0.5659,-0.573,-0.5762,-0.5787,-0.5883,-0.5917,-0.5967,-0.604,-0.6062,-0.6075,-0.6101,-0.6085,-0.6105,-0.6097,-0.6101,-0.6113,-0.6104,-0.6095,-0.6208,-0.6209,-0.6209,0,0,-0.5345,-0.5398,-0.5411,-0.546,-0.5535,-0.5594,-0.5597,-0.5688,-0.5724,-0.576,-0.5833,-0.5865,-0.5938,-0.5987,-0.6022,-0.5974,-0.6027,-0.5987,-0.5932,-0.5941,-0.5933,-0.5926,-0.5909,-0.5902,-0.5984,-0.5984,-0.5984,0,-0.5278,-0.533,-0.5411,-0.5438,-0.5472,-0.556,-0.5574,-0.5618,-0.5704,-0.5726,-0.5754,-0.5849,-0.5904,-0.5939,-0.5927,-0.5952,-0.5959,-0.5976,-0.5927,-0.5922,-0.5916,-0.5901,-0.5895,-0.5979,-0.5979,-0.598,-0.598,0,-0.5245,-0.5279,-0.528,-0.5361,-0.5396,-0.5416,-0.55,-0.5526,-0.5576,-0.5632,-0.5668,-0.5738,-0.5799,-0.5812,-0.5861,-0.5854,-0.5867,-0.591,-0.5959,-0.59,-0.5887,-0.5882,-0.5971,-0.5973,-0.5974,-0.5976,0,0,-0.5111,-0.5237,-0.5236,-0.5274,-0.5364,-0.5393,-0.5417,-0.5477,-0.5497,-0.5554,-0.5577,-0.5638,-0.5678,-0.5717,-0.5773,-0.5781,-0.5739,-0.5823,-0.5826,-0.5805,-0.5735,-0.5701,-0.5693,-0.5775,-0.5774,-0.5774,-0.5729,0,-0.5058,-0.5106,-0.518,-0.5204,-0.5238,-0.5322,-0.5344,-0.5402,-0.5455,-0.5492,-0.5551,-0.5592,-0.5642,-0.5666,-0.5678,-0.5741,-0.5726,-0.5746,-0.5798,-0.5798,-0.5776,-0.5687,-0.5652,-0.5606,-0.5724,-0.5723,-0.5723,0,-0.5003,-0.5055,-0.5081,-0.517,-0.5186,-0.5204,-0.5265,-0.5299,-0.5367,-0.5405,-0.5448,-0.551,-0.5541,-0.5585,-0.563,-0.5641,-0.5667,-0.5702,-0.5702,-0.5709,-0.5756,-0.5691,-0.5593,-0.5585,-0.5716,-0.5716,-0.5717,0,-0.4902,-0.4979,-0.5005,-0.5035,-0.5138,-0.5149,-0.5193,-0.5262,-0.5293,-0.5347,-0.5369,-0.5425,-0.5456,-0.5499,-0.5574,-0.5599,-0.561,-0.5661,-0.5643,-0.5641,-0.5641,-0.5639,-0.5544,-0.5658,-0.5658,-0.5658,-0.5658,0,-0.4835,-0.4848,-0.4961,-0.4977,-0.4995,-0.508,-0.5095,-0.5147,-0.5208,-0.5236,-0.5314,-0.5338,-0.5436,-0.5473,-0.5532,-0.556,-0.5573,-0.5606,-0.5621,-0.5598,-0.5594,-0.5616,-0.5621,-0.5656,-0.5657,-0.5657,-0.5657,0,-0.4725,-0.4801,-0.4835,-0.4931,-0.4955,-0.4963,-0.5045,-0.5064,-0.5123,-0.5157,-0.517,-0.5262,-0.5309,-0.5388,-0.5458,-0.5498,-0.5515,-0.5541,-0.5491,-0.55,-0.5478,-0.5478,-0.5393,-0.5386,-0.5504,-0.5502,-0.5501,0,-0.4676,-0.4688,-0.4785,-0.4809,-0.485,-0.4888,-0.492,-0.5005,-0.5036,-0.5114,-0.5124,-0.5177,-0.5224,-0.5295,-0.5368,-0.5422,-0.5451,-0.5417,-0.5459,-0.5436,-0.545,-0.5448,-0.5449,-0.5407,-0.5405,-0.5404,-0.5402,0,-0.4582,-0.462,-0.4663,-0.472,-0.4756,-0.4805,-0.4858,-0.4873,-0.497,-0.5001,-0.505,-0.5086,-0.5158,-0.5209,-0.5274,-0.532,-0.5377,-0.5389,-0.5388,-0.5364,-0.5334,-0.5349,-0.5464,-0.539,-0.5391,-0.5392,-0.5393,-0.5393,-0.4502,-0.4516,-0.4586,-0.4632,-0.4681,-0.4729,-0.4751,-0.4812,-0.4854,-0.4919,-0.4967,-0.5012,-0.5081,-0.5174,-0.5217,-0.5254,-0.528,-0.5278,-0.5278,-0.5275,-0.5266,-0.5328,-0.5266,-0.5267,-0.5267,-0.5268,-0.5268,0,-0.4411,-0.4461,-0.4502,-0.4573,-0.4609,-0.466,-0.4722,-0.4748,-0.4787,-0.4846,-0.4891,-0.4947,-0.4998,-0.5075,-0.5132,-0.5147,-0.5175,-0.5159,-0.5158,-0.5168,-0.524,-0.5235,-0.5136,-0.5136,-0.5136,-0.5136,-0.5136,-0.5136,-0.4368,-0.4396,-0.4441,-0.4494,-0.4544,-0.4589,-0.4619,-0.4664,-0.4711,-0.477,-0.4813,-0.4863,-0.4929,-0.4992,-0.5041,-0.5063,-0.508,-0.5056,-0.5085,-0.5151,-0.5163,-0.5175,-0.5171,-0.5059,-0.5059,-0.5011,-0.501,-0.501]}]]